This is the latest recevied weather packets stored in our database for station/object EA1EXV-11. If no packets are shown the sender has not sent any weather packets the latest 10 day(s).
| Time | Temp. | Humidity | Pressure | Rain* | Wind** | Luminosity | Snow |
|---|---|---|---|---|---|---|---|
| 1778029520 | 8.89° C | 80% | 1017.7 hPa | - | - | - | - |
| 1778028620 | 9.44° C | 80% | 1017.9 hPa | - | - | - | - |
| 1778027720 | 9.44° C | 80% | 1018 hPa | - | - | - | - |
| 1778026820 | 9.44° C | 80% | 1018.1 hPa | - | - | - | - |
| 1778025920 | 9.44° C | 79% | 1018.3 hPa | - | - | - | - |
| 1778025020 | 10° C | 79% | 1018.2 hPa | - | - | - | - |
| 1778024122 | 10° C | 78% | 1018.2 hPa | - | - | - | - |
| 1778023219 | 10° C | 78% | 1018.3 hPa | - | - | - | - |
| 1778022319 | 10° C | 77% | 1018.3 hPa | - | - | - | - |
| 1778021419 | 10.56° C | 77% | 1018.4 hPa | - | - | - | - |
| 1778020521 | 10.56° C | 76% | 1018.4 hPa | - | - | - | - |
| 1778019621 | 10.56° C | 76% | 1018.3 hPa | - | - | - | - |
| 1778018724 | 10.56° C | 75% | 1018.3 hPa | - | - | - | - |
| 1778017820 | 10.56° C | 74% | 1018.3 hPa | - | - | - | - |
| 1778016925 | 10° C | 74% | 1018.4 hPa | - | - | - | - |
| 1778016020 | 10.56° C | 73% | 1018.4 hPa | - | - | - | - |
| 1778015119 | 10.56° C | 72% | 1018.4 hPa | - | - | - | - |
| 1778014218 | 10.56° C | 71% | 1018.4 hPa | - | - | - | - |
| 1778013323 | 10.56° C | 70% | 1018.4 hPa | - | - | - | - |
| 1778012423 | 11.11° C | 69% | 1018.1 hPa | - | - | - | - |
| 1778011518 | 11.67° C | 67% | 1018 hPa | - | - | - | - |
| 1778010620 | 11.67° C | 66% | 1017.9 hPa | - | - | - | - |
| 1778009725 | 12.22° C | 63% | 1017.9 hPa | - | - | - | - |
| 1778008818 | 13.33° C | 61% | 1017.8 hPa | - | - | - | - |
| 1778007917 | 15° C | 58% | 1017.7 hPa | - | - | - | - |
* Rain since midnight (hover to see other rain measurements)
** Current wind speed in m/s (hover to see current wind gust speed)